Year,Month,Day,Hour,Minute,Value (Times are PST for temperature in C)
2019,03,20,00,00,8.30
2019,03,20,00,01,8.30
2019,03,20,00,02,8.40
2019,03,20,00,03,8.40
2019,03,20,00,04,8.40
2019,03,20,00,05,8.40
2019,03,20,00,06,8.40
2019,03,20,00,07,8.40
2019,03,20,00,08,8.40
2019,03,20,00,09,8.30
2019,03,20,00,10,8.30
2019,03,20,00,11,8.30
2019,03,20,00,12,8.30
2019,03,20,00,13,8.30
2019,03,20,00,14,8.30
2019,03,20,00,15,8.30
2019,03,20,00,16,8.30
2019,03,20,00,17,8.30
2019,03,20,00,18,8.30
2019,03,20,00,19,8.30
2019,03,20,00,20,8.30
2019,03,20,00,21,8.30
2019,03,20,00,22,8.30
2019,03,20,00,23,8.30
2019,03,20,00,24,8.20
2019,03,20,00,25,8.20
2019,03,20,00,26,8.20
2019,03,20,00,27,8.20
2019,03,20,00,28,8.30
2019,03,20,00,29,8.30
2019,03,20,00,30,8.30
2019,03,20,00,31,8.30
2019,03,20,00,32,8.30
2019,03,20,00,33,8.30
2019,03,20,00,34,8.20
2019,03,20,00,35,8.20
2019,03,20,00,36,8.20
2019,03,20,00,37,8.20
2019,03,20,00,38,8.20
2019,03,20,00,39,8.20
2019,03,20,00,40,8.10
2019,03,20,00,41,8.10
2019,03,20,00,42,8.10
2019,03,20,00,43,8.10
2019,03,20,00,44,8.10
2019,03,20,00,45,8.10
2019,03,20,00,46,8.10
2019,03,20,00,47,8.10
2019,03,20,00,48,8.10
2019,03,20,00,49,8.10
2019,03,20,00,50,8.10
2019,03,20,00,51,8.10
2019,03,20,00,52,8.20
2019,03,20,00,53,8.20
2019,03,20,00,54,8.20
2019,03,20,00,55,8.20
2019,03,20,00,56,8.20
2019,03,20,00,57,8.10
2019,03,20,00,58,8.10
2019,03,20,00,59,8.10
2019,03,20,01,00,8.10
2019,03,20,01,01,8.00
2019,03,20,01,02,7.90
2019,03,20,01,03,8.00
2019,03,20,01,04,8.00
2019,03,20,01,05,8.00
2019,03,20,01,06,7.90
2019,03,20,01,07,7.90
2019,03,20,01,08,7.90
2019,03,20,01,09,7.90
2019,03,20,01,10,7.80
2019,03,20,01,11,7.80
2019,03,20,01,12,7.80
2019,03,20,01,13,7.90
2019,03,20,01,14,7.90
2019,03,20,01,15,8.00
2019,03,20,01,16,8.10
2019,03,20,01,17,8.20
2019,03,20,01,18,8.20
2019,03,20,01,19,8.20
2019,03,20,01,20,8.20
2019,03,20,01,21,8.20
2019,03,20,01,22,8.20
2019,03,20,01,23,8.20
2019,03,20,01,24,8.20
2019,03,20,01,25,8.10
2019,03,20,01,26,8.10
2019,03,20,01,27,8.20
2019,03,20,01,28,8.20
2019,03,20,01,29,8.20
2019,03,20,01,30,8.20
2019,03,20,01,31,8.20
2019,03,20,01,32,8.20
2019,03,20,01,33,8.20
2019,03,20,01,34,8.20
2019,03,20,01,35,8.10
2019,03,20,01,36,8.00
2019,03,20,01,37,8.00
2019,03,20,01,38,8.00
2019,03,20,01,39,8.10
2019,03,20,01,40,8.10
2019,03,20,01,41,8.00
2019,03,20,01,42,8.00
2019,03,20,01,43,7.90
2019,03,20,01,44,7.80
2019,03,20,01,45,7.70
2019,03,20,01,46,7.70
2019,03,20,01,47,7.70
2019,03,20,01,48,7.60
2019,03,20,01,49,7.60
2019,03,20,01,50,7.60
2019,03,20,01,51,7.60
2019,03,20,01,52,7.50
2019,03,20,01,53,7.50
2019,03,20,01,54,7.60
2019,03,20,01,55,7.60
2019,03,20,01,56,7.60
2019,03,20,01,57,7.70
2019,03,20,01,58,7.80
2019,03,20,01,59,7.80
2019,03,20,02,00,7.80
2019,03,20,02,01,7.80
2019,03,20,02,02,7.80
2019,03,20,02,03,7.80
2019,03,20,02,04,7.70
2019,03,20,02,05,7.60
2019,03,20,02,06,7.50
2019,03,20,02,07,7.40
2019,03,20,02,08,7.40
2019,03,20,02,09,7.40
2019,03,20,02,10,7.40
2019,03,20,02,11,7.40
2019,03,20,02,12,7.40
2019,03,20,02,13,7.40
2019,03,20,02,14,7.40
2019,03,20,02,15,7.40
2019,03,20,02,16,7.40
2019,03,20,02,17,7.40
2019,03,20,02,18,7.40
2019,03,20,02,19,7.50
2019,03,20,02,20,7.50
2019,03,20,02,21,7.50
2019,03,20,02,22,7.50
2019,03,20,02,23,7.50
2019,03,20,02,24,7.40
2019,03,20,02,25,7.40
2019,03,20,02,26,7.40
2019,03,20,02,27,7.40
2019,03,20,02,28,7.40
2019,03,20,02,29,7.50
2019,03,20,02,30,7.60
2019,03,20,02,31,7.60
2019,03,20,02,32,7.60
2019,03,20,02,33,7.50
2019,03,20,02,34,7.50
2019,03,20,02,35,7.50
2019,03,20,02,36,7.60
2019,03,20,02,37,7.60
2019,03,20,02,38,7.70
2019,03,20,02,39,7.70
2019,03,20,02,40,7.70
2019,03,20,02,41,7.70
2019,03,20,02,42,7.70
2019,03,20,02,43,7.60
2019,03,20,02,44,7.60
2019,03,20,02,45,7.70
2019,03,20,02,46,7.70
2019,03,20,02,47,7.70
2019,03,20,02,48,7.70
2019,03,20,02,49,7.70
2019,03,20,02,50,7.70
2019,03,20,02,51,7.70
2019,03,20,02,52,7.80
2019,03,20,02,53,7.80
2019,03,20,02,54,7.80
2019,03,20,02,55,7.80
2019,03,20,02,56,7.70
2019,03,20,02,57,7.70
2019,03,20,02,58,7.60
2019,03,20,02,59,7.60
2019,03,20,03,00,7.50
2019,03,20,03,01,7.50
2019,03,20,03,02,7.40
2019,03,20,03,03,7.40
2019,03,20,03,04,7.40
2019,03,20,03,05,7.40
2019,03,20,03,06,7.40
2019,03,20,03,07,7.40
2019,03,20,03,08,7.40
2019,03,20,03,09,7.40
2019,03,20,03,10,7.40
2019,03,20,03,11,7.40
2019,03,20,03,12,7.40
2019,03,20,03,13,7.40
2019,03,20,03,14,7.40
2019,03,20,03,15,7.30
2019,03,20,03,16,7.30
2019,03,20,03,17,7.30
2019,03,20,03,18,7.30
2019,03,20,03,19,7.30
2019,03,20,03,20,7.20
2019,03,20,03,21,7.20
2019,03,20,03,22,7.20
2019,03,20,03,23,7.20
2019,03,20,03,24,7.20
2019,03,20,03,25,7.20
2019,03,20,03,26,7.20
2019,03,20,03,27,7.20
2019,03,20,03,28,7.20
2019,03,20,03,29,7.20
2019,03,20,03,30,7.10
2019,03,20,03,31,7.10
2019,03,20,03,32,7.10
2019,03,20,03,33,7.10
2019,03,20,03,34,7.20
2019,03,20,03,35,7.20
2019,03,20,03,36,7.20
2019,03,20,03,37,7.20
2019,03,20,03,38,7.20
2019,03,20,03,39,7.20
2019,03,20,03,40,7.20
2019,03,20,03,41,7.20
2019,03,20,03,42,7.20
2019,03,20,03,43,7.20
2019,03,20,03,44,7.20
2019,03,20,03,45,7.20
2019,03,20,03,46,7.20
2019,03,20,03,47,7.20
2019,03,20,03,48,7.20
2019,03,20,03,49,7.20
2019,03,20,03,50,7.10
2019,03,20,03,51,7.00
2019,03,20,03,52,7.00
2019,03,20,03,53,6.90
2019,03,20,03,54,6.90
2019,03,20,03,55,6.80
2019,03,20,03,56,6.80
2019,03,20,03,57,6.80
2019,03,20,03,58,6.70
2019,03,20,03,59,6.60
2019,03,20,04,00,6.50
2019,03,20,04,01,6.40
2019,03,20,04,02,6.40
2019,03,20,04,03,6.30
2019,03,20,04,04,6.20
2019,03,20,04,05,6.20
2019,03,20,04,06,6.20
2019,03,20,04,07,6.20
2019,03,20,04,08,6.30
2019,03,20,04,09,6.30
2019,03,20,04,10,6.40
2019,03,20,04,11,6.50
2019,03,20,04,12,6.50
2019,03,20,04,13,6.60
2019,03,20,04,14,6.70
2019,03,20,04,15,6.70
2019,03,20,04,16,6.70
2019,03,20,04,17,6.70
2019,03,20,04,18,6.70
2019,03,20,04,19,6.80
2019,03,20,04,20,6.80
2019,03,20,04,21,7.00
2019,03,20,04,22,7.10
2019,03,20,04,23,7.10
2019,03,20,04,24,7.20
2019,03,20,04,25,7.20
2019,03,20,04,26,7.30
2019,03,20,04,27,7.30
2019,03,20,04,28,7.30
2019,03,20,04,29,7.30
2019,03,20,04,30,7.20
2019,03,20,04,31,7.20
2019,03,20,04,32,7.10
2019,03,20,04,33,7.00
2019,03,20,04,34,6.90
2019,03,20,04,35,6.80
2019,03,20,04,36,6.70
2019,03,20,04,37,6.60
2019,03,20,04,38,6.60
2019,03,20,04,39,6.60
2019,03,20,04,40,6.60
2019,03,20,04,41,6.50
2019,03,20,04,42,6.40
2019,03,20,04,43,6.40
2019,03,20,04,44,6.40
2019,03,20,04,45,6.40
2019,03,20,04,46,6.40
2019,03,20,04,47,6.40
2019,03,20,04,48,6.40
2019,03,20,04,49,6.30
2019,03,20,04,50,6.30
2019,03,20,04,51,6.30
2019,03,20,04,52,6.30
2019,03,20,04,53,6.30
2019,03,20,04,54,6.30
2019,03,20,04,55,6.40
2019,03,20,04,56,6.50
2019,03,20,04,57,6.60
2019,03,20,04,58,6.60
2019,03,20,04,59,6.70
2019,03,20,05,00,6.70
2019,03,20,05,01,6.70
2019,03,20,05,02,6.80
2019,03,20,05,03,6.80
2019,03,20,05,04,6.80
2019,03,20,05,05,6.80
2019,03,20,05,06,6.80
2019,03,20,05,07,6.80
2019,03,20,05,08,6.80
2019,03,20,05,09,6.80
2019,03,20,05,10,6.80
2019,03,20,05,11,6.80
2019,03,20,05,12,6.80
2019,03,20,05,13,6.80
2019,03,20,05,14,6.80
2019,03,20,05,15,6.80
2019,03,20,05,16,6.80
2019,03,20,05,17,6.80
2019,03,20,05,18,6.80
2019,03,20,05,19,6.80
2019,03,20,05,20,6.80
2019,03,20,05,21,6.90
2019,03,20,05,22,6.90
2019,03,20,05,23,6.90
2019,03,20,05,24,6.80
2019,03,20,05,25,6.70
2019,03,20,05,26,6.50
2019,03,20,05,27,6.40
2019,03,20,05,28,6.40
2019,03,20,05,29,6.30
2019,03,20,05,30,6.20
2019,03,20,05,31,6.20
2019,03,20,05,32,6.10
2019,03,20,05,33,6.00
2019,03,20,05,34,5.90
2019,03,20,05,35,5.80
2019,03,20,05,36,5.80
2019,03,20,05,37,5.70
2019,03,20,05,38,5.60
2019,03,20,05,39,5.50
2019,03,20,05,40,5.40
2019,03,20,05,41,5.30
2019,03,20,05,42,5.20
2019,03,20,05,43,5.10
2019,03,20,05,44,5.10
2019,03,20,05,45,5.20
2019,03,20,05,46,5.20
2019,03,20,05,47,5.10
2019,03,20,05,48,5.10
2019,03,20,05,49,5.10
2019,03,20,05,50,5.10
2019,03,20,05,51,5.00
2019,03,20,05,52,5.00
2019,03,20,05,53,4.90
2019,03,20,05,54,4.80
2019,03,20,05,55,4.80
2019,03,20,05,56,4.60
2019,03,20,05,57,4.50
2019,03,20,05,58,4.40
2019,03,20,05,59,4.30
2019,03,20,06,00,4.20
2019,03,20,06,01,4.10
2019,03,20,06,02,4.10
2019,03,20,06,03,4.10
2019,03,20,06,04,4.10
2019,03,20,06,05,4.10
2019,03,20,06,06,4.20
2019,03,20,06,07,4.20
2019,03,20,06,08,4.30
2019,03,20,06,09,4.30
2019,03,20,06,10,4.40
2019,03,20,06,11,4.50
2019,03,20,06,12,4.70
2019,03,20,06,13,4.80
2019,03,20,06,14,4.90
2019,03,20,06,15,4.90
2019,03,20,06,16,4.90
2019,03,20,06,17,4.90
2019,03,20,06,18,4.90
2019,03,20,06,19,4.90
2019,03,20,06,20,4.90
2019,03,20,06,21,5.30
2019,03,20,06,22,5.30
2019,03,20,06,23,5.30
2019,03,20,06,24,5.30
2019,03,20,06,25,5.20
2019,03,20,06,26,5.10
2019,03,20,06,27,5.00
2019,03,20,06,28,5.00
2019,03,20,06,29,4.90
2019,03,20,06,30,4.80
2019,03,20,06,31,4.80
2019,03,20,06,32,4.70
2019,03,20,06,33,4.60
2019,03,20,06,34,4.50
2019,03,20,06,35,4.50
2019,03,20,06,36,4.40
2019,03,20,06,37,4.50
2019,03,20,06,38,4.50
2019,03,20,06,39,4.60
2019,03,20,06,40,4.70
2019,03,20,06,41,4.80
2019,03,20,06,42,4.90
2019,03,20,06,43,4.90
2019,03,20,06,44,4.90
2019,03,20,06,45,4.90
2019,03,20,06,46,5.00
2019,03,20,06,47,5.00
2019,03,20,06,48,5.00
2019,03,20,06,49,5.00
2019,03,20,06,50,5.00
2019,03,20,06,51,5.10
2019,03,20,06,52,5.10
2019,03,20,06,53,5.20
2019,03,20,06,54,5.20
2019,03,20,06,55,5.30
2019,03,20,06,56,5.30
2019,03,20,06,57,5.30
2019,03,20,06,58,5.30
2019,03,20,06,59,5.30
2019,03,20,07,00,5.30
2019,03,20,07,01,5.30
2019,03,20,07,02,5.40
2019,03,20,07,03,5.40
2019,03,20,07,04,5.30
2019,03,20,07,05,5.30
2019,03,20,07,06,5.20
2019,03,20,07,07,5.10
2019,03,20,07,08,5.10
2019,03,20,07,09,5.10
2019,03,20,07,10,5.10
2019,03,20,07,11,5.10
2019,03,20,07,12,5.10
2019,03,20,07,13,5.20
2019,03,20,07,14,5.10
2019,03,20,07,15,5.10
2019,03,20,07,16,5.00
2019,03,20,07,17,4.90
2019,03,20,07,18,4.80
2019,03,20,07,19,4.70
2019,03,20,07,20,4.70
2019,03,20,07,21,4.60
2019,03,20,07,22,4.60
2019,03,20,07,23,4.60
2019,03,20,07,24,4.60
2019,03,20,07,25,4.70
2019,03,20,07,26,4.70
2019,03,20,07,27,4.80
2019,03,20,07,28,4.80
2019,03,20,07,29,4.70
2019,03,20,07,30,4.70
2019,03,20,07,31,4.70
2019,03,20,07,32,4.70
2019,03,20,07,33,4.60
2019,03,20,07,34,4.60
2019,03,20,07,35,4.70
2019,03,20,07,36,4.70
2019,03,20,07,37,4.80
2019,03,20,07,38,4.80
2019,03,20,07,39,4.80
2019,03,20,07,40,4.80
2019,03,20,07,41,4.90
2019,03,20,07,42,4.90
2019,03,20,07,43,4.90
2019,03,20,07,44,4.90
2019,03,20,07,45,4.90
2019,03,20,07,46,4.90
2019,03,20,07,47,4.90
2019,03,20,07,48,4.90
2019,03,20,07,49,4.90
2019,03,20,07,50,5.00
2019,03,20,07,51,5.10
2019,03,20,07,52,5.20
2019,03,20,07,53,5.30
2019,03,20,07,54,5.30
2019,03,20,07,55,5.40
2019,03,20,07,56,5.40
2019,03,20,07,57,5.40
2019,03,20,07,58,5.40
2019,03,20,07,59,5.40
2019,03,20,08,00,5.50
2019,03,20,08,01,5.40
2019,03,20,08,02,5.40
2019,03,20,08,03,5.40
2019,03,20,08,04,5.40
2019,03,20,08,05,5.40
2019,03,20,08,06,5.40
2019,03,20,08,07,5.30
2019,03,20,08,08,5.30
2019,03,20,08,09,5.30
2019,03,20,08,10,5.20
2019,03,20,08,11,5.20
2019,03,20,08,12,5.20
2019,03,20,08,13,5.20
2019,03,20,08,14,5.20
2019,03,20,08,15,5.30
2019,03,20,08,16,5.30
2019,03,20,08,17,5.30
2019,03,20,08,18,5.30
2019,03,20,08,19,5.40
2019,03,20,08,20,5.50
2019,03,20,08,21,5.60
2019,03,20,08,22,5.60
2019,03,20,08,23,5.70
2019,03,20,08,24,5.70
2019,03,20,08,25,5.80
2019,03,20,08,26,5.80
2019,03,20,08,27,5.90
2019,03,20,08,28,6.00
2019,03,20,08,29,6.10
2019,03,20,08,30,6.10
2019,03,20,08,31,6.20
2019,03,20,08,32,6.30
2019,03,20,08,33,6.30
2019,03,20,08,34,6.30
2019,03,20,08,35,6.40
2019,03,20,08,36,6.40
2019,03,20,08,37,6.50
2019,03,20,08,38,6.60
2019,03,20,08,39,6.70
2019,03,20,08,40,6.80
2019,03,20,08,41,6.90
2019,03,20,08,42,7.00
2019,03,20,08,43,7.10
2019,03,20,08,44,7.20
2019,03,20,08,45,7.20
2019,03,20,08,46,7.30
2019,03,20,08,47,7.40
2019,03,20,08,48,7.50
2019,03,20,08,49,7.60
2019,03,20,08,50,7.70
2019,03,20,08,51,7.80
2019,03,20,08,52,8.00
2019,03,20,08,53,8.10
2019,03,20,08,54,8.20
2019,03,20,08,55,8.30
2019,03,20,08,56,8.40
2019,03,20,08,57,8.50
2019,03,20,08,58,8.60
2019,03,20,08,59,8.80
2019,03,20,09,00,8.90
2019,03,20,09,01,9.00
2019,03,20,09,02,9.10
2019,03,20,09,03,9.20
2019,03,20,09,04,9.30
2019,03,20,09,05,9.40
2019,03,20,09,06,9.50
2019,03,20,09,07,9.50
2019,03,20,09,08,9.60
2019,03,20,09,09,9.50
2019,03,20,09,10,9.50
2019,03,20,09,11,9.40
2019,03,20,09,12,9.30
2019,03,20,09,13,9.30
2019,03,20,09,14,9.20
2019,03,20,09,15,9.20
2019,03,20,09,16,9.30
2019,03,20,09,17,9.30
2019,03,20,09,18,9.40
2019,03,20,09,19,9.40
2019,03,20,09,20,9.50
2019,03,20,09,21,9.60
2019,03,20,09,22,9.60
2019,03,20,09,23,9.70
2019,03,20,09,24,9.80
2019,03,20,09,25,9.90
2019,03,20,09,26,9.90
2019,03,20,09,27,10.00
2019,03,20,09,28,10.10
2019,03,20,09,29,10.20
2019,03,20,09,30,10.20
2019,03,20,09,31,10.30
2019,03,20,09,32,10.40
2019,03,20,09,33,10.40
2019,03,20,09,34,10.50
2019,03,20,09,35,10.60
2019,03,20,09,36,10.70
2019,03,20,09,37,10.80
2019,03,20,09,38,10.80
2019,03,20,09,39,10.90
2019,03,20,09,40,10.90
2019,03,20,09,41,10.90
2019,03,20,09,42,10.90
2019,03,20,09,43,10.90
2019,03,20,09,44,11.00
2019,03,20,09,45,11.00
2019,03,20,09,46,11.10
2019,03,20,09,47,11.10
2019,03,20,09,48,11.20
2019,03,20,09,49,11.20
2019,03,20,09,50,11.30
2019,03,20,09,51,11.30
2019,03,20,09,52,11.40
2019,03,20,09,53,11.50
2019,03,20,09,54,11.60
2019,03,20,09,55,11.70
2019,03,20,09,56,11.80
2019,03,20,09,57,11.80
2019,03,20,09,58,12.00
2019,03,20,09,59,12.00
2019,03,20,10,00,12.10
2019,03,20,10,01,12.20
2019,03,20,10,02,12.20
2019,03,20,10,03,12.30
2019,03,20,10,04,12.40
2019,03,20,10,05,12.50
2019,03,20,10,06,12.60
2019,03,20,10,07,12.60
2019,03,20,10,08,12.70
2019,03,20,10,09,12.70
2019,03,20,10,10,12.80
2019,03,20,10,11,12.80
2019,03,20,10,12,12.90
2019,03,20,10,13,13.00
2019,03,20,10,14,13.10
2019,03,20,10,15,13.20
2019,03,20,10,16,13.30
2019,03,20,10,17,13.40
2019,03,20,10,18,13.50
2019,03,20,10,19,13.60
2019,03,20,10,20,13.70
2019,03,20,10,21,13.80
2019,03,20,10,22,13.90
2019,03,20,10,23,13.90
2019,03,20,10,24,14.00
2019,03,20,10,25,14.00
2019,03,20,10,26,14.00
2019,03,20,10,27,14.00
2019,03,20,10,28,14.00
2019,03,20,10,29,14.00
2019,03,20,10,30,14.00
2019,03,20,10,31,14.00
2019,03,20,10,32,14.10
2019,03,20,10,33,14.10
2019,03,20,10,34,14.20
2019,03,20,10,35,14.20
2019,03,20,10,36,14.30
2019,03,20,10,37,14.40
2019,03,20,10,38,14.40
2019,03,20,10,39,14.50
2019,03,20,10,40,14.50
2019,03,20,10,41,14.60
2019,03,20,10,42,14.70
2019,03,20,10,43,14.70
2019,03,20,10,44,14.80
2019,03,20,10,45,14.80
2019,03,20,10,46,14.90
2019,03,20,10,47,15.00
2019,03,20,10,48,15.00
2019,03,20,10,49,15.00
2019,03,20,10,50,15.10
2019,03,20,10,51,15.20
2019,03,20,10,52,15.30
2019,03,20,10,53,15.30
2019,03,20,10,54,15.30
2019,03,20,10,55,15.30
2019,03,20,10,56,15.30
2019,03,20,10,57,15.30
2019,03,20,10,58,15.30
2019,03,20,10,59,15.30
2019,03,20,11,00,15.40
2019,03,20,11,01,15.40
2019,03,20,11,02,15.50
2019,03,20,11,03,15.50
2019,03,20,11,04,15.50
2019,03,20,11,05,15.40
2019,03,20,11,06,15.50
2019,03,20,11,07,15.50
2019,03,20,11,08,15.60
2019,03,20,11,09,15.60
2019,03,20,11,10,15.60
2019,03,20,11,11,15.60
2019,03,20,11,12,15.60
2019,03,20,11,13,15.60
2019,03,20,11,14,15.70
2019,03,20,11,15,15.60
2019,03,20,11,16,15.60
2019,03,20,11,17,15.70
2019,03,20,11,18,15.70
2019,03,20,11,19,15.80
2019,03,20,11,20,15.80
2019,03,20,11,21,15.90
2019,03,20,11,22,15.90
2019,03,20,11,23,15.90
2019,03,20,11,24,16.00
2019,03,20,11,25,16.10
2019,03,20,11,26,16.20
2019,03,20,11,27,16.20
2019,03,20,11,28,16.30
2019,03,20,11,29,16.40
2019,03,20,11,30,16.50
2019,03,20,11,31,16.60
2019,03,20,11,32,16.70
2019,03,20,11,33,16.70
2019,03,20,11,34,16.70
2019,03,20,11,35,16.70
2019,03,20,11,36,16.60
2019,03,20,11,37,16.50
2019,03,20,11,38,16.40
2019,03,20,11,39,16.30
2019,03,20,11,40,16.20
2019,03,20,11,41,16.20
2019,03,20,11,42,16.20
2019,03,20,11,43,16.20
2019,03,20,11,44,16.20
2019,03,20,11,45,16.30
2019,03,20,11,46,16.30
2019,03,20,11,47,16.40
2019,03,20,11,48,16.40
2019,03,20,11,49,16.50
2019,03,20,11,50,16.60
2019,03,20,11,51,16.70
2019,03,20,11,52,16.70
2019,03,20,11,53,16.70
2019,03,20,11,54,16.70
2019,03,20,11,55,16.70
2019,03,20,11,56,16.80
2019,03,20,11,57,16.80
2019,03,20,11,58,16.80
2019,03,20,11,59,16.90
2019,03,20,12,00,16.90
2019,03,20,12,01,16.90
2019,03,20,12,02,16.80
2019,03,20,12,03,16.80
2019,03,20,12,04,16.80
2019,03,20,12,05,16.70
2019,03,20,12,06,16.80
2019,03,20,12,07,16.80
2019,03,20,12,08,16.80
2019,03,20,12,09,16.80
2019,03,20,12,10,16.80
2019,03,20,12,11,16.80
2019,03,20,12,12,16.80
2019,03,20,12,13,16.80
2019,03,20,12,14,16.80
2019,03,20,12,15,16.70
2019,03,20,12,16,16.70
2019,03,20,12,17,16.70
2019,03,20,12,18,16.70
2019,03,20,12,19,16.70
2019,03,20,12,20,16.90
2019,03,20,12,21,17.00
2019,03,20,12,22,17.00
2019,03,20,12,23,17.10
2019,03,20,12,24,17.10
2019,03,20,12,25,17.10
2019,03,20,12,26,17.10
2019,03,20,12,27,17.10
2019,03,20,12,28,17.10
2019,03,20,12,29,17.10
2019,03,20,12,30,17.10
2019,03,20,12,31,17.10
2019,03,20,12,32,17.10
2019,03,20,12,33,17.10
2019,03,20,12,34,17.10
2019,03,20,12,35,17.10
2019,03,20,12,36,17.10
2019,03,20,12,37,17.10
2019,03,20,12,38,17.20
2019,03,20,12,39,17.20
2019,03,20,12,40,17.20
2019,03,20,12,41,17.20
2019,03,20,12,42,17.20
2019,03,20,12,43,17.20
2019,03,20,12,44,17.30
2019,03,20,12,45,17.30
2019,03,20,12,46,17.40
2019,03,20,12,47,17.40
2019,03,20,12,48,17.40
2019,03,20,12,49,17.40
2019,03,20,12,50,17.40
2019,03,20,12,51,17.50
2019,03,20,12,52,17.50
2019,03,20,12,53,17.60
2019,03,20,12,54,17.60
2019,03,20,12,55,17.60
2019,03,20,12,56,17.60
2019,03,20,12,57,17.70
2019,03,20,12,58,17.70
2019,03,20,12,59,17.80
2019,03,20,13,00,17.80
2019,03,20,13,01,17.80
2019,03,20,13,02,17.90
2019,03,20,13,03,17.90
2019,03,20,13,04,18.10
2019,03,20,13,05,18.10
2019,03,20,13,06,18.10
2019,03,20,13,07,18.20
2019,03,20,13,08,18.20
2019,03,20,13,09,18.20
2019,03,20,13,10,18.20
2019,03,20,13,11,18.20
2019,03,20,13,12,18.20
2019,03,20,13,13,18.20
2019,03,20,13,14,18.20
2019,03,20,13,15,18.20
2019,03,20,13,16,18.30
2019,03,20,13,17,18.30
2019,03,20,13,18,18.30
2019,03,20,13,19,18.20
2019,03,20,13,20,18.20
2019,03,20,13,21,18.20
2019,03,20,13,22,18.10
2019,03,20,13,23,18.10
2019,03,20,13,24,18.10
2019,03,20,13,25,18.10
2019,03,20,13,26,18.10
2019,03,20,13,27,18.10
2019,03,20,13,28,18.10
2019,03,20,13,29,18.10
2019,03,20,13,30,18.10
2019,03,20,13,31,18.20
2019,03,20,13,32,18.20
2019,03,20,13,33,18.20
2019,03,20,13,34,18.30
2019,03,20,13,35,18.30
2019,03,20,13,36,18.30
2019,03,20,13,37,18.30
2019,03,20,13,38,18.30
2019,03,20,13,39,18.40
2019,03,20,13,40,18.40
2019,03,20,13,41,18.40
2019,03,20,13,42,18.40
2019,03,20,13,43,18.50
2019,03,20,13,44,18.50
2019,03,20,13,45,18.50
2019,03,20,13,46,18.60
2019,03,20,13,47,18.60
2019,03,20,13,48,18.60
2019,03,20,13,49,18.60
2019,03,20,13,50,18.60
2019,03,20,13,51,18.60
2019,03,20,13,52,18.70
2019,03,20,13,53,18.70
2019,03,20,13,54,18.80
2019,03,20,13,55,18.80
2019,03,20,13,56,18.80
2019,03,20,13,57,18.80
2019,03,20,13,58,18.80
2019,03,20,13,59,18.80
2019,03,20,14,00,18.80
2019,03,20,14,01,18.90
2019,03,20,14,02,18.90
2019,03,20,14,03,18.90
2019,03,20,14,04,18.90
2019,03,20,14,05,18.90
2019,03,20,14,06,18.90
2019,03,20,14,07,19.00
2019,03,20,14,08,19.00
2019,03,20,14,09,19.10
2019,03,20,14,10,19.10
2019,03,20,14,11,19.10
2019,03,20,14,12,19.20
2019,03,20,14,13,19.10
2019,03,20,14,14,19.10
2019,03,20,14,15,19.20
2019,03,20,14,16,19.20
2019,03,20,14,17,19.20
2019,03,20,14,18,19.20
2019,03,20,14,19,19.20
2019,03,20,14,20,19.30
2019,03,20,14,21,19.30
2019,03,20,14,22,19.40
2019,03,20,14,23,19.40
2019,03,20,14,24,19.50
2019,03,20,14,25,19.50
2019,03,20,14,26,19.60
2019,03,20,14,27,19.60
2019,03,20,14,28,19.60
2019,03,20,14,29,19.60
2019,03,20,14,30,19.60
2019,03,20,14,31,19.60
2019,03,20,14,32,19.60
2019,03,20,14,33,19.60
2019,03,20,14,34,19.60
2019,03,20,14,35,19.60
2019,03,20,14,36,19.60
2019,03,20,14,37,19.70
2019,03,20,14,38,19.80
2019,03,20,14,39,19.80
2019,03,20,14,40,19.90
2019,03,20,14,41,19.90
2019,03,20,14,42,19.90
2019,03,20,14,43,19.90
2019,03,20,14,44,19.80
2019,03,20,14,45,19.80
2019,03,20,14,46,19.80
2019,03,20,14,47,19.80
2019,03,20,14,48,19.80
2019,03,20,14,49,19.80
2019,03,20,14,50,19.80
2019,03,20,14,51,19.80
2019,03,20,14,52,19.90
2019,03,20,14,53,19.90
2019,03,20,14,54,19.90
2019,03,20,14,55,20.00
2019,03,20,14,56,20.00
2019,03,20,14,57,20.10
2019,03,20,14,58,20.10
2019,03,20,14,59,20.20
2019,03,20,15,00,20.20
2019,03,20,15,01,20.20
2019,03,20,15,02,20.10
2019,03,20,15,03,20.10
2019,03,20,15,04,20.10
2019,03,20,15,05,20.10
2019,03,20,15,06,20.10
2019,03,20,15,07,20.10
2019,03,20,15,08,20.10
2019,03,20,15,09,20.20
2019,03,20,15,10,20.20
2019,03,20,15,11,20.20
2019,03,20,15,12,20.30
2019,03,20,15,13,20.30
2019,03,20,15,14,20.30
2019,03,20,15,15,20.30
2019,03,20,15,16,20.30
2019,03,20,15,17,20.30
2019,03,20,15,18,20.40
2019,03,20,15,19,20.40
2019,03,20,15,20,20.40
2019,03,20,15,21,20.40
2019,03,20,15,22,20.40
2019,03,20,15,23,20.50
2019,03,20,15,24,20.50
2019,03,20,15,25,20.60
2019,03,20,15,26,20.60
2019,03,20,15,27,20.60
2019,03,20,15,28,20.60
2019,03,20,15,29,20.50
2019,03,20,15,30,20.50
2019,03,20,15,31,20.50
2019,03,20,15,32,20.60
2019,03,20,15,33,20.60
2019,03,20,15,34,20.60
2019,03,20,15,35,20.60
2019,03,20,15,36,20.60
2019,03,20,15,37,20.60
2019,03,20,15,38,20.70
2019,03,20,15,39,20.70
2019,03,20,15,40,20.60
2019,03,20,15,41,20.60
2019,03,20,15,42,20.60
2019,03,20,15,43,20.50
2019,03,20,15,44,20.50
2019,03,20,15,45,20.50
2019,03,20,15,46,20.50
2019,03,20,15,47,20.50
2019,03,20,15,48,20.50
2019,03,20,15,49,20.50
2019,03,20,15,50,20.50
2019,03,20,15,51,20.50
2019,03,20,15,52,20.50
2019,03,20,15,53,20.60
2019,03,20,15,54,20.60
2019,03,20,15,55,20.60
2019,03,20,15,56,20.70
2019,03,20,15,57,20.70
2019,03,20,15,58,20.80
2019,03,20,15,59,20.80
2019,03,20,16,00,20.90
2019,03,20,16,01,20.90
2019,03,20,16,02,20.90
2019,03,20,16,03,20.90
2019,03,20,16,04,20.90
2019,03,20,16,05,20.90
2019,03,20,16,06,21.00
2019,03,20,16,07,21.10
2019,03,20,16,08,21.20
2019,03,20,16,09,21.30
2019,03,20,16,10,21.40
2019,03,20,16,11,21.50
2019,03,20,16,12,21.60
2019,03,20,16,13,21.60
2019,03,20,16,14,21.40
2019,03,20,16,15,21.20
2019,03,20,16,16,21.00
2019,03,20,16,17,20.90
2019,03,20,16,18,20.70
2019,03,20,16,19,20.60
2019,03,20,16,20,20.50
2019,03,20,16,21,20.40
2019,03,20,16,22,20.40
2019,03,20,16,23,20.40
2019,03,20,16,24,20.40
2019,03,20,16,25,20.40
2019,03,20,16,26,20.50
2019,03,20,16,27,20.50
2019,03,20,16,28,20.60
2019,03,20,16,29,20.60
2019,03,20,16,30,20.60
2019,03,20,16,31,20.70
2019,03,20,16,32,20.80
2019,03,20,16,33,20.90
2019,03,20,16,34,20.90
2019,03,20,16,35,21.00
2019,03,20,16,36,21.10
2019,03,20,16,37,21.20
2019,03,20,16,38,21.20
2019,03,20,16,39,21.20
2019,03,20,16,40,21.20
2019,03,20,16,41,21.20
2019,03,20,16,42,21.20
2019,03,20,16,43,21.20
2019,03,20,16,44,21.10
2019,03,20,16,45,21.10
2019,03,20,16,46,21.10
2019,03,20,16,47,21.10
2019,03,20,16,48,21.10
2019,03,20,16,49,21.10
2019,03,20,16,50,21.00
2019,03,20,16,51,21.00
2019,03,20,16,52,21.00
2019,03,20,16,53,21.00
2019,03,20,16,54,21.00
2019,03,20,16,55,20.90
2019,03,20,16,56,20.90
2019,03,20,16,57,20.90
2019,03,20,16,58,20.90
2019,03,20,16,59,20.90
2019,03,20,17,00,20.90
2019,03,20,17,01,20.90
2019,03,20,17,02,20.90
2019,03,20,17,03,20.90
2019,03,20,17,04,20.90
2019,03,20,17,05,20.90
2019,03,20,17,06,20.90
2019,03,20,17,07,20.90
2019,03,20,17,08,20.90
2019,03,20,17,09,20.90
2019,03,20,17,10,20.90
2019,03,20,17,11,21.00
2019,03,20,17,12,21.00
2019,03,20,17,13,21.10
2019,03,20,17,14,21.10
2019,03,20,17,15,21.20
2019,03,20,17,16,21.20
2019,03,20,17,17,21.20
2019,03,20,17,18,21.20
2019,03,20,17,19,21.20
2019,03,20,17,20,21.20
2019,03,20,17,21,21.20
2019,03,20,17,22,21.20
2019,03,20,17,23,21.20
2019,03,20,17,24,21.20
2019,03,20,17,25,21.20
2019,03,20,17,26,21.20
2019,03,20,17,27,21.30
2019,03,20,17,28,21.30
2019,03,20,17,29,21.30
2019,03,20,17,30,21.40
2019,03,20,17,31,21.40
2019,03,20,17,32,21.40
2019,03,20,17,33,21.40
2019,03,20,17,34,21.40
2019,03,20,17,35,21.40
2019,03,20,17,36,21.40
2019,03,20,17,37,21.40
2019,03,20,17,38,21.40
2019,03,20,17,39,21.30
2019,03,20,17,40,21.30
2019,03,20,17,41,21.30
2019,03,20,17,42,21.30
2019,03,20,17,43,21.30
2019,03,20,17,44,21.30